Regional Weather Roundup
Issued by NWS Jackson, KY

Home | Current Version | Previous Version | Graphics & Text | Print | Product List | Glossary On
Versions: 1 2 3 4 5 6 7 8 9 10 11 12 13 14 15 16 17 18 19 20 21 22 23 24 25 26 27 28 29 30 31 32 33 34 35 36 37 38 39 40 41 42 43 44 45 46 47 48 49 50
000
ASUS43 KJKL 210611
RWRJKL

EAST KENTUCKY HOURLY WEATHER ROUNDUP
NATIONAL WEATHER SERVICE JACKSON KY
200 AM EDT TUE OCT 21 2014

NOTE: "FAIR" INDICATES FEW OR NO CLOUDS BELOW 12,000 FEET WITH
NO SIGNIFICANT WEATHER AND/OR OBSTRUCTIONS TO VISIBILITY.

* THESE REPORTS ARE NOT UNDER NWS QUALITY CONTROL AND MAY NOT
  REPORT WEATHER SUCH AS PRECIPITATION AND FOG.

KYZ079-080-083-085-087-088-110-112-115-119-120-210700
...EASTERN KENTUCKY...

CITY           SKY/WX    TMP DP  RH WIND       PRES   REMARKS
JACKSON        CLOUDY    51  47  86 VRB3      29.96S
6HR MIN TEMP:  50; 6HR MAX TEMP:  54; 6HR PCP: TRACE;

LONDON         PTCLDY    53  47  79 SW3       29.97F
6HR MIN TEMP:  49; 6HR MAX TEMP:  60;

SOMERSET*      CLEAR     48  48 100 CALM      29.98S
MONTICELLO*    CLEAR     55  49  80 SW3       30.00S
6HR MIN TEMP:  44; 6HR MAX TEMP:  56;

WILLIAMSBURG*  MOCLDY    54  48  82 CALM      29.98F
MIDDLESBORO*   PTCLDY    45  45  99 CALM      29.99F
6HR MIN TEMP:  44; 6HR MAX TEMP:  53;

HARLAN APT*    MOCLDY    45  45 100 S5        29.99S
HAZARD APT*    LGT RAIN  54  50  87 SW7       29.96F
BLACK MTN*       N/A     45  45 100 SW5         N/A
PIKEVILLE APT* PTCLDY    54  46  76 SW3       29.95F
BIG SANDY*     PTCLDY    55  48  77 W5        29.94S
6HR MIN TEMP:  54; 6HR MAX TEMP:  56;

MOREHEAD APT*  MOCLDY    54  48  82 SW9       29.95S
$$

KYZ035-036-041-042-044-050-067-078-099-210700
...CENTRAL KENTUCKY...

CITY           SKY/WX    TMP DP  RH WIND       PRES   REMARKS
MT STERLING*   CLEAR     50  50 100 SW6       29.95S
FLEMING/MASON* CLEAR     50  48  93 SW5       29.93S
DANVILLE*      CLEAR     52  48  87 W6        29.96S
RICHMOND*      CLEAR     52  48  87 S6        29.94F
LEXINGTON      CLEAR     54  49  83 SW7       29.94S
6HR MIN TEMP:  54; 6HR MAX TEMP:  59; 6HR PCP: TRACE;

FRANKFORT      CLEAR     52  49  89 CALM      29.93R
6HR MIN TEMP:  52; 6HR MAX TEMP:  59;

$$

KYZ091>093-OHZ055-061-077-WVZ005-015-034-035-042-210700
...SOUTHERN OHIO/WEST VIRGINIA...

CITY           SKY/WX    TMP DP  RH WIND       PRES   REMARKS
COVINGTON      PTCLDY    53  47  79 NW7       29.92R
COLUMBUS       PTCLDY    46  45  96 CALM      29.88S FOG
DAYTON         LGT RAIN  53  50  89 NW9       29.92S
WILMINGTON     CLOUDY    53  50  89 W10       29.91R
HUNTINGTON     CLOUDY    52  49  89 CALM      29.92R
CHARLESTON     MOCLDY    51  50  96 W7        29.92S
PINEVILLE*     CLOUDY    49  49 100 MISG      30.01S
BECKLEY        PTCLDY    49  44  83 SW8       29.95F
BLUEFIELD      PTCLDY    51  43  74 SW6       29.97F
$$

VAZ002-007-008-TNZ017-027-036-066-071-210700
...SOUTHWEST VIRGINIA/EAST TENNESSEE...

CITY           SKY/WX    TMP DP  RH WIND       PRES   REMARKS
WISE*          PTCLDY    46  46 100 SW3       30.00S
JONESVILLE*    FOG       43  43 100 CALM      30.01F VSB 1
ABINGDON*      CLEAR     53  50  90 W3        29.99S
BRISTOL        CLEAR     49  47  93 CALM      30.00R
KNOXVILLE      PTCLDY    54  49  83 SW9       30.00S
OAK RIDGE      CLEAR     53  50  89 SW3       30.01F
CROSSVILLE     PTCLDY    51  45  79 W7        30.03S
NASHVILLE      CLEAR     52  49  89 CALM      30.01S
$$

...KEY TO REMARKS...
VSB - VISIBILITY IN MILES
WCI - WIND CHILL INDEX
HX  - HEAT INDEX

$$


USA.gov is the U.S. government's official web portal to all federal, state and local government web resources and services.